Weather History for KFIG - October, 2013

Change the Weather History Date:

Thursday, October 3, 2013

  Actual Average (KDUJ) Record (KDUJ)
Temperature  
Mean Temperature 62 °F 53 °F  
Max Temperature 78 °F 63 °F 80 °F (2005)
Min Temperature 50 °F 43 °F 26 °F (1974)
Degree Days  
Heating Degree Days 2 12  
Month to date heating degree days 35  
Since 1 July heating degree days 281  
Cooling Degree Days 0 0  
Month to date cooling degree days 0  
Year to date cooling degree days 360  
Growing Degree Days 12 (Base 50)    
Moisture  
Dew Point 57 °F    
Average Humidity 93    
Maximum Humidity 100    
Minimum Humidity 62    
Precipitation  
Precipitation 0.01 in 0.10 in 3.20 in (1998)
Month to date precipitation 0.31  
Sea Level Pressure  
Sea Level Pressure 30.12 in    
Wind  
Wind Speed 2 mph (WNW)    
Max Wind Speed 9 mph    
Max Gust Speed 16 mph    
Visibility 6 miles    
Events Fog , Rain , Thunderstorm    
T = Trace of Precipitation, MM = Missing Value Source: NWS Daily Summary

Daily Weather History Graph

Daily Weather History Graph

Search for Another Location

Airport or City:

Trip Planner

Search our weather history database for the weather conditions in past years. The results will help you decide how hot, cold, wet, or windy it might be!

Date:

Astronomy

Oct. 03, 2013 Rise Set
Actual Time 7:12 AM EDT 6:51 PM EDT
Civil Twilight 6:45 AM EDT 7:19 PM EDT
Nautical Twilight 6:13 AM EDT 7:51 PM EDT
Astronomical Twilight 5:41 AM EDT 8:23 PM EDT
Moon 5:43 AM EDT (10/3) 5:59 PM EDT (10/3)
Length of Visible Light 12h 34m
Length of Day
11h 39m
Waning Crescent, 2% of the Moon is Illuminated
Oct 3
Waning Crescent
Oct 4
New
Oct 11
First Quarter
Oct 18
Full
Oct 26
Last Quarter

Hourly Weather History & Observations

Time (EDT) Temp. Dew Point Humidity Pressure Visibility Wind Dir Wind Speed Gust Speed Precip Events Conditions
12:38 AM 59.0 °F 59.0 °F 100% 30.12 in 2.0 mi South 3.5 mph - N/A   Clear
12:54 AM 57.9 °F 57.9 °F 100% 30.11 in 0.8 mi Calm Calm - N/A   Mist
1:11 AM 57.2 °F 57.2 °F 100% 30.12 in 1.2 mi Calm Calm - N/A   Partly Cloudy
1:25 AM 57.2 °F 57.2 °F 100% 30.13 in 3.0 mi Calm Calm - N/A   Partly Cloudy
1:54 AM 55.0 °F 55.0 °F 100% 30.12 in 9.0 mi North 3.5 mph - N/A   Clear
2:27 AM 53.6 °F 53.6 °F 100% 30.13 in 8.0 mi Calm Calm - N/A   Scattered Clouds
2:36 AM 55.4 °F 55.4 °F 100% 30.13 in 10.0 mi Calm Calm - N/A   Mostly Cloudy
2:54 AM 55.0 °F 55.0 °F 100% 30.11 in 5.0 mi Calm Calm - N/A   Overcast
3:18 AM 53.6 °F 53.6 °F 100% 30.12 in 2.0 mi North 3.5 mph - N/A   Scattered Clouds
3:22 AM 53.6 °F 53.6 °F 100% 30.12 in 0.8 mi North 3.5 mph - N/A   Mostly Cloudy
3:32 AM 53.6 °F 53.6 °F 100% 30.13 in 2.0 mi North 4.6 mph - N/A   Mostly Cloudy
3:36 AM 53.6 °F 53.6 °F 100% 30.13 in 3.0 mi North 3.5 mph - N/A   Mostly Cloudy
3:39 AM 53.6 °F 53.6 °F 100% 30.13 in 1.8 mi North 3.5 mph - N/A   Mostly Cloudy
3:47 AM 53.6 °F 53.6 °F 100% 30.13 in 3.0 mi NNW 3.5 mph - N/A   Mostly Cloudy
3:54 AM 54.0 °F 54.0 °F 100% 30.12 in 6.0 mi Calm Calm - N/A   Mostly Cloudy
4:49 AM 53.6 °F 53.6 °F 100% 30.13 in 10.0 mi Calm Calm - N/A   Mostly Cloudy
4:54 AM 53.1 °F 52.0 °F 96% 30.12 in 10.0 mi Calm Calm - N/A   Mostly Cloudy
5:54 AM 52.0 °F 52.0 °F 100% 30.13 in 6.0 mi North 4.6 mph - N/A   Mostly Cloudy
6:54 AM 52.0 °F 52.0 °F 100% 30.14 in 10.0 mi Calm Calm - N/A   Partly Cloudy
7:19 AM 51.8 °F 51.8 °F 100% 30.16 in 2.5 mi Calm Calm - N/A   Partly Cloudy
7:22 AM 51.8 °F 51.8 °F 100% 30.16 in 1.0 mi NE 3.5 mph - N/A   Mist
7:25 AM 51.8 °F 51.8 °F 100% 30.16 in 0.2 mi NNE 3.5 mph - N/A Fog Fog
7:36 AM 50.0 °F 50.0 °F 100% 30.16 in 0.2 mi NNE 4.6 mph - N/A Fog Fog
7:54 AM 51.1 °F 51.1 °F 100% 30.16 in 0.2 mi North 3.5 mph - N/A Fog Fog
8:09 AM 51.8 °F 51.8 °F 100% 30.16 in 0.2 mi North 4.6 mph - N/A Fog Fog
8:54 AM 53.1 °F 53.1 °F 100% 30.17 in 0.2 mi Calm Calm - 0.01 in Fog Fog
9:36 AM 55.4 °F 55.4 °F 100% 30.17 in 0.5 mi Calm Calm - N/A Fog Fog
9:51 AM 55.4 °F 55.4 °F 100% 30.16 in 2.0 mi Calm Calm - N/A   Overcast
9:52 AM 55.9 °F 55.9 °F 100% 30.16 in 2.0 mi Calm Calm - N/A   Overcast
10:06 AM 57.2 °F 57.2 °F 100% 30.17 in 4.0 mi Calm Calm - N/A   Overcast
10:41 AM 60.8 °F 59.0 °F 94% 30.16 in 10.0 mi Calm Calm - N/A   Scattered Clouds
10:54 AM 63.0 °F 59.0 °F 87% 30.15 in 10.0 mi Calm Calm - N/A   Partly Cloudy
11:54 AM 70.0 °F 62.1 °F 76% 30.13 in 10.0 mi Variable 3.5 mph - N/A   Partly Cloudy
12:54 PM 73.9 °F 62.1 °F 66% 30.10 in 10.0 mi SW 4.6 mph - N/A   Mostly Cloudy
1:54 PM 75.9 °F 62.1 °F 62% 30.08 in 10.0 mi SSW 6.9 mph - N/A   Mostly Cloudy
2:54 PM 75.9 °F 63.0 °F 64% 30.06 in 10.0 mi SW 5.8 mph - N/A   Overcast
3:54 PM 75.9 °F 64.0 °F 67% 30.05 in 9.0 mi SW 6.9 mph - N/A   Mostly Cloudy
4:54 PM 75.9 °F 63.0 °F 64% 30.04 in 10.0 mi SSW 5.8 mph - N/A   Mostly Cloudy
5:54 PM 73.9 °F 63.0 °F 68% 30.06 in 10.0 mi SW 9.2 mph 16.1 mph N/A   Overcast
6:54 PM 72.0 °F 63.0 °F 73% 30.06 in 10.0 mi SSW 3.5 mph - N/A   Scattered Clouds
7:54 PM 70.0 °F 63.0 °F 78% 30.07 in 10.0 mi SW 4.6 mph - N/A   Partly Cloudy
8:54 PM 64.9 °F 63.0 °F 93% 30.09 in 10.0 mi Calm Calm - N/A   Clear
9:54 PM 64.9 °F 63.0 °F 93% 30.09 in 10.0 mi Calm Calm - N/A   Clear
10:41 PM 64.4 °F 62.6 °F 94% 30.11 in 7.0 mi West 5.8 mph - N/A Thunderstorm Mostly Cloudy
10:54 PM 66.0 °F 63.0 °F 90% 30.10 in 8.0 mi SW 6.9 mph - 0.00 in Rain Light Rain
11:12 PM 64.4 °F 64.4 °F 100% 30.11 in 5.0 mi SW 5.8 mph - 0.03 in Rain , Thunderstorm Rain
11:27 PM 64.4 °F 64.4 °F 100% 30.11 in 7.0 mi South 4.6 mph - 0.03 in Rain Light Rain